CAPE
2644 2453 2511 2606 2583 2469 2040 2174 2314 2584 2704 2787 2531 2498 2374 2010 2298 2603 2618 2496 2230 1869 1749 1804 1783 1965 1847 1776 1545 1545 1479 1464 1396 1406 1566 2038 2479 2607 2676 2416 2416 2390 2272 2108 2430 2474 2437 2556 2475 2398 2258 2222 1927 2006 1971 1893 1892 1908 1842 1822 1804 1761 1737 1873 1726 1531 1532 1726 1709 1610 1402 1502 1180 1288 1278 1261 1340 1426 1312 1263 1324 1304 1315 1637 1553
2456 2419 2348 2525 2555 2489 2134 2104 2192 2460 2699 2485 2116 2305 2300 1698 1954 2403 2729 2440 1870 1815 2240 1645 1527 1404 1593 1673 1572 1440 1487 1455 1458 1545 1519 2051 2442 2752 2725 2493 2308 2363 2248 2160 2369 2410 2357 2309 2320 2208 2193 2305 2180 1813 2060 1952 1965 1903 1862 1860 1784 1744 1695 1564 1749 1693 1607 1732 1583 1350 1404 1303 1190 1480 1390 1483 1498 1518 1222 1334 1468 1426 1484 1716 1626
2256 2288 2295 2399 2359 2409 2354 2342 2310 2482 2523 2074 1816 2107 2099 2079 1986 2228 2188 1750 1610 1465 2743 1862 1683 1375 1760 1675 1667 1530 1393 1464 1481 1636 1563 2040 2380 2486 2556 2458 2405 2332 2303 2172 2291 2334 2354 2389 2412 2331 2330 2229 1972 1937 1906 2061 2017 1978 1900 1832 1799 1748 1648 1535 1635 1658 1702 1663 1644 1506 1376 1334 1304 1389 1531 1529 1494 1505 1696 1721 1666 1675 1734 1818 1724
2292 2114 2208 2293 2116 2171 2328 2496 2473 2509 2181 1500 1561 1692 2181 2178 2124 2154 2330 1985 1826 1840 2556 2200 1806 1542 1510 1672 1562 1401 1385 1436 1502 1635 1598 1900 2256 2333 2467 2578 2460 2364 2342 2195 2180 2319 2299 2332 2333 1945 1951 2218 2264 2188 2086 2212 2244 2144 2017 1985 1846 1843 1667 1657 1590 1707 1644 1557 1553 1409 1290 1322 1365 1418 1538 1752 1813 1778 1881 1872 1756 1740 1809 1932 1931
2320 2080 2563 2176 2085 1885 2093 2352 2502 2486 1945 1663 1652 1680 2273 2883 2718 3408 2767 2473 2080 1732 2007 1823 1708 1578 1352 1478 1364 1302 1398 1430 1528 1619 1649 1831 1999 2225 2307 2556 2467 2295 2395 2234 2168 2266 2289 2355 2224 2154 1940 2094 2060 1863 2044 2154 2107 2096 2142 2022 1907 1663 1549 1732 1676 1668 1641 1598 1392 1487 1397 1442 1502 1572 1656 1755 1805 1777 1869 1887 1902 1820 1840 1905 1887
2315 2160 1922 2014 2026 1816 1860 2118 2323 2228 2017 1859 1802 1993 2171 2594 2560 2590 2925 3523 2874 1894 1704 1588 1472 1375 1323 1319 1290 1359 1451 1480 1526 1512 1628 1811 1998 2150 2215 2303 2384 2197 2303 2243 2218 2204 2257 2384 2358 2016 2180 2051 1894 1684 1832 1770 1736 1733 2010 2133 2020 1781 1688 1630 1749 1708 1614 1572 1545 1480 1450 1391 1380 1546 1700 1811 1870 1912 1810 1831 1838 1860 1907 1890 1860
2234 2072 1904 1824 1889 1792 1795 1830 1981 2034 1928 1922 2387 2475 2425 2365 2670 1864 1830 1811 1942 2144 2220 1418 564 345 766 1128 1210 1362 1447 1520 1519 1404 1581 1838 2040 2179 2190 2239 2266 2173 2164 2024 2663 2272 2249 2323 2252 2237 2132 2070 1884 1716 1842 1778 1526 1649 1605 1548 2036 1933 1598 1646 1707 1797 1681 1657 1624 1426 1582 1390 1381 1418 1680 1559 1803 1812 1717 1826 1863 1834 1905 1778 1894
2163 1932 1658 1717 1762 1747 1643 1698 1846 2077 1771 2377 3048 2807 2449 2009 2726 2311 1918 1793 2541 1737 1173 895 196 13 14 782 1142 1313 1375 1468 1447 1267 1561 1822 2059 2170 2208 2213 2214 2213 2536 1974 1917 2160 2346 2349 2356 2326 2141 2221 2095 1931 1955 1754 1735 1538 1610 1604 1550 1531 1467 1609 1784 1685 1516 1470 1502 1538 1488 1518 1419 1430 1468 1541 1499 1319 1592 1747 1714 1746 1669 1726 1759
2184 1813 1665 1694 1676 1594 1666 1768 2178 2199 1841 2685 3199 2994 2222 2573 2468 2809 2006 1821 1846 1172 489 710 1 13 85 598 1019 1198 1289 1342 1272 1248 1618 1731 1957 2114 2138 2171 2283 2682 2528 2016 1842 1830 2264 2357 2294 2414 2210 2212 2103 2056 2013 1848 1854 1469 1377 1443 1402 1528 1458 1519 1462 1512 1263 1328 1287 1340 1488 1408 1461 1345 1361 1340 1396 1542 1676 1700 1683 1639 1614 1567 1570
2346 2052 1739 1584 1536 1569 1638 1866 2434 2450 2148 2535 2993 2663 1881 2419 2170 2419 2146 2094 1873 939 5 511 6 40 216 635 947 1096 1134 1150 1163 1987 1505 1626 1749 1835 2013 2092 2142 2282 2369 2180 1872 1812 1846 2171 2353 2392 2417 2089 2063 2141 1975 1977 1869 1637 1450 1459 1587 1542 1484 1395 1444 1424 1478 1384 1422 1376 1449 1390 1482 1362 1410 1526 1565 1670 1693 1614 1519 1424 1373 1403 1503
2253 2108 1746 1792 1603 1742 1828 1952 2672 2482 2368 2478 2916 2645 2615 2387 2369 2141 2392 2559 2226 314 0 0 11 46 216 606 818 946 896 994 1566 1633 1439 1506 1502 1774 1731 1945 1989 2090 2187 2150 1940 1873 1885 1864 1966 2049 2122 2392 2183 2197 2072 2055 2017 1736 1678 1615 1695 1686 1661 1702 1498 1157 1037 1226 1418 1468 1450 1262 1596 1422 1485 1432 1610 1618 1609 1536 1429 1340 1328 1339 1338
2202 2175 1937 2102 1810 1852 1949 2171 2704 2455 2357 2669 2920 2601 2355 2284 2267 2108 1927 1583 409 0 0 18 0 64 484 428 632 678 729 1208 1278 1442 1412 1392 1519 1904 1587 1653 1791 1891 1956 1959 1861 1805 1833 1851 2034 1849 1958 2122 2334 2231 2143 2116 2052 2096 1948 1962 1827 1691 1635 1704 1657 1410 1466 1648 1678 1677 1593 1532 1576 1623 1596 1522 1490 1453 1449 1444 1476 1398 1378 1299 1211
2176 2154 2104 2551 1961 1943 2080 2417 2680 2470 2284 2485 2621 2403 2232 2036 2306 2712 1763 1068 300 0 0 0 0 0 0 0 6 385 818 1432 1211 1292 1322 1364 1378 1896 1539 1597 1653 1705 1734 1807 1802 1728 1660 1696 1723 1756 1836 1938 1999 2282 2104 1970 2022 2004 1985 1964 1709 1756 1942 1718 1610 1432 1615 1686 1638 1586 1527 1535 1578 1532 1520 1507 1394 1370 1364 1394 1272 1164 1137 1110 1139
2214 2032 2051 2174 2070 2074 2112 2437 2700 2600 2445 2391 2460 2494 2969 2143 2508 2175 2246 1250 646 27 0 0 0 0 0 0 0 56 1359 1338 1085 1185 1191 1296 1413 1713 1577 1489 1551 1641 1632 1674 1748 1676 1532 1475 1442 1644 1755 1829 1862 1860 1888 1875 2058 2086 2018 1913 1740 1794 1895 1677 1546 1665 1639 1802 1599 1472 1575 1559 1533 1536 1412 1399 1333 1254 1140 1212 1004 963 990 1090 1197
2080 2072 1979 1990 2059 2036 2101 2357 2706 2722 2573 2566 2513 2742 2615 2287 2269 2023 1598 1691 1884 556 0 0 0 0 0 0 0 1 86 430 710 789 973 1181 1363 1624 1572 1429 1480 1494 1542 1529 1521 1533 1520 1348 1264 1519 1687 1732 1741 1743 1724 2211 1973 2168 2049 1966 1894 1797 1648 1696 1578 1471 1714 1767 1607 1504 1542 1534 1432 1398 1362 1313 1232 1198 1022 1001 928 810 833 926 948
2020 2117 2018 1888 2026 2019 2022 2288 2603 2610 2487 2521 2537 2535 2370 2342 2271 2052 1397 1170 1184 74 702 0 0 0 0 0 0 0 0 0 30 460 648 861 1123 1456 1498 1398 1422 1422 1392 1340 1350 1398 1426 1131 1132 1404 1508 1505 1524 1584 1645 1642 1931 2136 2107 2089 1963 1808 1663 1678 1616 1699 1758 1729 1622 1572 1522 1455 1368 1370 1193 1100 1146 1187 1133 950 773 642 750 908 497
2033 2109 2094 1954 1905 2016 2078 2221 2539 2535 2522 2445 2454 2376 2382 2318 2341 2065 1512 1016 852 0 274 0 0 0 0 0 0 0 0 0 0 0 32 436 716 956 1248 1251 1293 1365 1350 1327 1298 1273 1225 1048 978 1229 1394 1462 1489 1430 1568 1616 1850 2241 2116 1814 1820 1866 1592 1570 1293 1416 1713 1722 1655 1513 1504 1431 1290 1254 1049 1046 834 666 684 710 622 642 508 356 290
2036 2077 2135 2006 1842 1875 2235 2323 2422 2484 2519 2401 2360 2402 2472 2489 2412 2148 1717 1307 859 40 0 601 66 161 17 0 0 0 0 0 0 0 0 161 440 600 762 886 1042 1209 1243 1251 1224 1146 1109 1023 890 1004 1313 1535 1456 1261 1406 1572 1620 1570 1617 1584 1690 1839 1711 1570 1430 1283 1393 1410 1517 1504 1386 1390 1146 984 881 781 726 565 652 696 574 565 457 359 82
2029 2042 2094 2120 1902 1756 2100 2528 2536 2537 2512 2422 2442 2507 2535 2570 2486 2080 1890 1543 1234 530 0 0 0 178 228 139 202 102 0 0 0 0 2 0 0 169 502 560 706 883 1006 1089 1135 1125 1103 1073 1024 1030 1256 1453 1422 1136 1154 1375 1458 1639 1728 1764 1694 1758 1688 1508 1270 1298 1171 1057 1210 1159 988 869 944 884 791 654 717 644 568 653 519 489 466 279 242
2059 2046 2046 2080 2022 1826 1898 2438 2671 2713 2687 2538 2545 2583 2638 2623 2547 2426 2080 1833 1376 1038 282 0 0 0 167 3 998 449 0 0 0 0 0 0 0 0 0 9 502 629 693 808 949 1028 990 938 1023 1110 1168 1247 1313 1259 1121 1164 1166 1385 1813 1829 1731 1500 1408 1476 1307 1238 1235 1139 1173 1338 1122 951 960 936 755 776 523 474 480 609 461 211 163 94 256
2056 2087 2064 2045 2136 1955 1877 2109 2532 2757 2914 2785 2652 2638 2645 2656 2575 2538 2284 2034 1589 1202 1154 304 0 0 0 0 0 0 7 62 0 0 0 0 0 0 0 0 0 0 132 505 657 814 808 725 757 968 944 1039 1148 1217 1221 1182 1059 1121 1400 1768 1654 1458 1416 1418 1282 1274 1232 1187 1300 1279 1144 1059 1054 1042 919 832 260 313 193 142 204 123 57 52 180
2048 2098 2097 2089 2107 2083 1983 1978 2152 2531 2934 2990 2836 2646 2604 2581 2561 2445 2274 2089 1740 1393 1299 657 0 0 0 0 0 0 0 0 0 0 0 0 0 0 0 0 0 0 0 2 389 567 661 645 623 1013 1042 998 1019 1091 1100 1025 959 1057 1269 1530 1605 1563 1513 1423 1250 1188 1264 1258 1288 1268 1044 890 922 1107 732 194 56 207 192 15 29 82 116 114 152
2044 2078 2119 2108 2096 2144 2160 2112 2090 2362 2770 2963 2901 2740 2620 2600 2561 2468 2349 2157 1854 1503 1410 1316 0 0 0 0 0 0 0 0 0 0 0 0 0 0 0 0 0 0 0 0 14 245 507 587 544 578 982 980 950 954 926 857 925 1056 1169 1405 1632 1687 1602 1418 1259 1223 1220 1264 1221 1167 911 976 592 326 243 26 23 115 160 106 119 202 222 350 393
2060 2078 2107 2103 2088 2134 2226 2290 2329 2376 2510 2753 2872 2865 2794 2732 2636 2539 2465 2231 1954 1594 1539 1462 313 0 0 0 0 0 0 0 0 0 0 0 0 0 0 0 0 0 0 0 0 1 3 528 166 342 629 813 764 775 797 813 840 1202 1399 1454 1620 1685 1651 1531 1394 1188 1238 979 839 960 722 588 381 236 230 101 90 197 317 295 291 321 370 369 396
2049 2072 2084 2090 2080 2086 2168 2311 2401 2518 2541 2669 2792 2854 2882 2858 2776 2609 2555 2355 2051 1783 1599 1409 882 0 0 0 0 0 0 0 0 0 0 0 0 0 0 0 0 0 0 0 0 0 0 0 0 26 228 580 625 626 682 734 743 984 1653 1363 1649 1617 1509 1554 1376 1220 1088 705 532 716 732 639 710 568 617 503 498 527 516 445 410 414 440 507 657
1959 1986 2035 2095 2085 2066 2096 2228 2359 2518 2658 2738 2811 2840 2906 2930 2942 2745 2604 2522 2258 1971 1683 1570 1212 236 0 0 0 0 0 0 0 0 0 0 0 0 0 16 0 0 0 0 0 0 0 0 0 0 22 144 368 491 573 584 594 714 1430 1500 1422 1571 1418 1363 1290 1126 908 664 468 521 689 799 713 660 763 819 630 572 512 463 519 611 672 663 364
1848 1897 1945 2058 2105 2086 2094 2167 2317 2492 2677 2772 2841 2891 2914 2985 3018 2918 2637 2575 2447 2158 1835 1588 1411 1291 900 0 0 0 0 0 0 0 0 0 0 0 0 2 0 0 0 0 0 0 0 0 0 0 0 3 29 75 80 40 206 437 1052 1675 1278 1402 1349 1210 1170 1131 944 660 595 469 505 690 814 795 748 790 825 622 618 688 796 912 674 268 310
1718 1817 1850 1963 2070 2104 2100 2173 2256 2400 2590 2713 2786 2847 2900 2966 3014 2987 2832 2706 2568 2310 2024 1723 1512 1472 1357 493 0 0 0 0 0 0 0 0 0 0 0 0 0 0 0 0 0 0 0 0 0 0 0 0 0 11 139 262 61 408 842 1146 1191 1028 1103 1102 1038 1030 981 689 607 601 491 531 647 873 1034 1062 974 762 802 940 875 594 524 688 915
1550 1715 1784 1828 1980 2060 2098 2162 2264 2338 2462 2627 2725 2779 2851 2910 2973 2954 2864 2830 2729 2511 2217 1952 1892 1816 1683 1141 0 0 0 0 0 0 0 0 0 0 0 0 0 0 0 0 0 0 0 0 0 0 0 0 0 0 15 24 84 238 182 526 795 613 134 783 897 854 858 722 400 480 540 507 486 562 773 971 1013 922 886 609 398 392 569 715 759
1429 1654 1756 1812 1881 2184 2049 2114 2237 2347 2400 2498 2611 2683 2713 2754 2818 2860 2881 2802 2734 2607 2465 2357 2240 2158 1956 1589 908 8 6 1 0 0 0 0 0 0 0 0 0 0 0 0 0 0 0 0 0 0 0 0 0 0 0 0 90 374 106 46 172 0 0 76 524 706 670 619 349 158 201 360 466 456 414 386 433 490 492 398 324 351 499 565 624
1432 1610 1748 1800 1847 1945 2016 2060 2173 2307 2400 2443 2513 2580 2589 2606 2640 2745 2851 2827 2651 2572 2521 2466 2369 2315 2296 1963 1572 951 166 9 7 4 10 13 1 0 0 0 0 0 0 0 0 0 0 0 0 0 0 0 0 0 0 0 97 273 140 16 45 25 0 0 5 275 329 245 117 4 0 0 0 66 88 63 53 69 112 195 312 396 464 505 581
1444 1609 1743 1774 1819 1884 1990 2048 2108 2209 2321 2419 2482 2526 2558 2546 2557 2614 2726 2824 2756 2605 2546 2463 2374 2355 2408 2348 2143 1804 1231 424 12 347 394 339 36 13 2 0 352 356 118 0 0 12 0 0 0 0 0 0 0 0 0 0 40 467 128 59 41 320 129 0 0 0 11 2 0 0 0 0 0 0 0 0 0 2 15 53 119 204 288 378 488
1523 1682 1774 1819 1841 1855 1953 2028 2058 2107 2174 2304 2428 2496 2531 2530 2522 2538 2592 2695 2757 2692 2570 2500 2418 2390 2426 2413 2323 2157 1920 1371 422 13 247 270 23 64 60 123 462 551 564 468 206 1 89 0 0 0 0 0 0 0 0 0 7 71 283 154 109 140 86 2 0 0 0 0 0 0 0 0 0 0 0 0 0 0 4 60 88 86 123 151 166
1698 1784 1847 1888 1890 1879 1891 1984 2030 2058 2108 2176 2302 2427 2475 2500 2495 2483 2512 2596 2650 2665 2547 2452 2446 2448 2439 2431 2369 2272 2110 1939 1547 683 39 9 11 40 74 64 436 502 572 583 508 349 282 217 226 12 56 3 19 0 4 3 9 34 54 183 192 114 83 11 0 0 0 0 0 0 0 0 0 0 0 0 0 0 0 18 65 39 9 5 1
1641 1875 1958 2007 2004 1961 1902 1914 2010 2076 2123 2153 2215 2310 2380 2420 2447 2445 2464 2524 2568 2567 2515 2403 2368 2410 2465 2461 2399 2300 2164 2046 1881 1666 1130 346 3 18 61 70 68 261 510 589 573 517 450 418 343 320 75 266 420 448 396 203 28 17 21 56 171 199 140 37 5 0 0 0 0 0 0 0 0 0 0 0 0 0 0 0 1 2 0 0 0
1590 1730 1975 2099 2150 2118 2044 1965 1974 2076 2160 2212 2243 2292 2345 2370 2390 2419 2442 2478 2514 2522 2493 2375 2280 2294 2346 2409 2378 2288 2187 2078 1984 1792 1666 1434 950 34 12 43 68 70 456 522 583 559 532 504 455 415 390 390 413 503 584 597 557 491 408 146 88 188 192 154 43 8 6 1 0 0 0 0 0 0 0 0 0 0 0 0 0 0 0 0 0
1727 1665 1771 2012 2182 2255 2232 2143 2070 2060 2146 2252 2314 2350 2381 2403 2406 2408 2427 2441 2453 2462 2460 2398 2283 2223 2229 2237 2210 2177 2121 2023 2002 1938 1792 1535 1359 1143 473 7 41 71 57 349 564 582 563 550 546 518 509 507 526 522 511 518 573 598 555 485 92 131 152 133 149 138 96 18 1 268 274 58 0 0 0 0 0 0 0 0 0 0 0 0 0
1882 1819 1756 1839 2012 2168 2268 2291 2232 2172 2163 2228 2327 2388 2436 2465 2473 2457 2436 2428 2416 2400 2396 2388 2342 2278 2225 2199 2180 2115 2049 1980 1840 1778 1737 1633 1508 1404 1290 1061 428 36 61 46 117 529 579 572 572 599 589 604 577 561 569 542 499 496 538 584 577 520 281 98 104 180 223 174 115 287 296 282 242 216 217 220 197 26 0 0 0 0 0 0 0
1875 1970 1933 1866 1924 2011 2089 2191 2263 2283 2264 2254 2280 2360 2432 2480 2515 2528 2500 2464 2436 2402 2358 2350 2348 2344 2314 2260 2210 2157 2105 2031 1917 1780 1659 1563 1459 1363 1272 1207 1157 1008 690 108 49 44 168 341 500 538 594 603 600 605 574 539 519 467 215 431 444 469 461 399 203 127 167 191 128 207 300 287 274 258 252 262 253 28 0 0 0 0 0 0 0
1643 1920 2076 2056 2008 2012 2056 2066 2110 2160 2222 2262 2298 2319 2370 2442 2498 2529 2533 2509 2485 2455 2412 2384 2374 2375 2377 2358 2324 2268 2206 2142 2042 1919 1775 1649 1509 1392 1277 1154 1074 1005 968 904 733 541 189 180 177 371 420 501 525 530 506 475 448 422 16 50 142 136 54 280 315 164 82 100 138 103 312 284 272 259 264 279 290 233 0 100 202 169 0 0 0
1437 1555 1853 2115 2165 2142 2112 2112 2123 2133 2136 2154 2220 2311 2378 2428 2463 2507 2540 2553 2547 2519 2487 2467 2458 2458 2446 2438 2423 2405 2355 2304 2230 2133 1998 1835 1671 1513 1374 1224 1092 974 892 822 801 744 698 627 545 455 394 373 394 433 425 416 58 174 36 6 98 127 58 70 347 344 92 41 80 375 368 315 268 258 246 265 283 249 0 92 210 214 133 0 0
1440 1426 1447 1684 2023 2187 2203 2186 2188 2212 2232 2206 2190 2242 2336 2419 2484 2518 2547 2579 2598 2586 2570 2544 2540 2536 2538 2531 2517 2496 2485 2446 2418 2372 2309 2226 2102 1944 1755 1548 1351 1160 983 857 762 699 646 605 576 548 505 472 422 354 168 97 43 27 32 0 30 83 5 13 27 363 360 109 18 240 371 328 101 9 249 270 255 178 0 0 118 184 25 0 0
1519 1480 1438 1427 1548 1867 2140 2212 2201 2179 2230 2311 2359 2347 2348 2410 2474 2556 2593 2617 2632 2670 2682 2676 2654 2618 2605 2604 2610 2615 2614 2630 2609 2579 2539 2485 2414 2322 2213 2072 1904 1728 1528 1386 1276 1135 1044 982 913 857 815 752 687 559 447 399 338 34 61 17 1 2 0 4 70 26 18 55 3 32 295 333 0 121 265 272 274 199 0 0 0 0 0 0 0
1567 1553 1520 1477 1442 1486 1693 2004 2189 2213 2169 2185 2317 2444 2482 2488 2500 2526 2574 2618 2646 2689 2728 2758 2749 2716 2675 2650 2651 2646 2653 2670 2664 2655 2659 2646 2630 2588 2524 2445 2335 2208 2055 1877 1702 1551 1446 1337 1250 1189 1095 1023 976 890 793 686 582 503 428 371 196 169 0 0 70 33 151 45 65 35 97 171 0 0 281 308 293 170 0 0 0 0 86 0 0
1605 1633 1611 1573 1542 1495 1478 1563 1786 2062 2200 2205 2206 2244 2385 2506 2557 2552 2499 2530 2616 2666 2710 2746 2780 2775 2759 2740 2724 2703 2685 2678 2688 2695 2688 2661 2641 2625 2609 2583 2542 2472 2378 2293 2156 2014 1888 1804 1669 1569 1432 1296 1214 1132 1022 915 836 779 720 648 570 501 458 460 514 493 512 431 350 130 66 74 0 4 0 300 277 94 0 0 0 0 198 178 0
1645 1682 1712 1716 1674 1629 1574 1529 1543 1645 1857 2053 2188 2234 2248 2285 2396 2497 2491 2423 2445 2563 2646 2707 2752 2784 2794 2782 2756 2743 2725 2701 2682 2688 2665 2685 2662 2625 2603 2554 2512 2475 2434 2408 2339 2279 2209 2119 1990 1860 1785 1650 1477 1381 1318 1208 1147 1072 1022 981 936 872 821 876 865 827 798 699 587 444 231 119 0 0 5 264 238 245 209 57 0 0 61 38 0
1703 1727 1750 1796 1810 1791 1737 1678 1622 1611 1661 1767 1941 2106 2204 2242 2247 2299 2443 2461 2423 2454 2546 2630 2694 2754 2797 2812 2819 2821 2812 2798 2787 2770 2748 2729 2690 2664 2653 2608 2550 2524 2544 2543 2526 2527 2540 2542 2528 2463 2461 2391 2294 2239 2181 2120 1982 1985 1878 1776 1686 1572 1486 1435 1354 1289 1178 1069 914 779 612 528 320 0 14 34 166 158 154 0 0 0 0 0 0
2340 2095 1823 1784 1822 1859 1882 1878 1819 1756 1734 1760 1862 1978 2104 2214 2257 2255 2259 2319 2371 2420 2517 2617 2689 2744 2793 2849 2883 2918 2933 2943 2956 2956 2953 2924 2898 2850 2903 2982 3058 3100 3086 3137 3123 3013 3027 3045 3007 2952 2910 2879 2865 2761 2608 2459 2611 2416 2206 2044 1953 1656 1713 1743 1726 1703 1642 1492 1286 1123 862 781 656 372 56 17 0 0 0 0 0 0 0 0 0
2826 2599 2314 2046 1853 1834 1890 1941 1942 1900 1863 1850 1861 1948 2072 2199 2302 2365 2410 2406 2378 2358 2408 2542 2670 2746 2805 2861 2899 2940 2972 2998 3031 3049 3061 3055 2953 3144 3297 3377 3416 3414 3372 3351 3201 3202 3172 3186 3250 3251 3231 3216 2989 2887 2909 2875 2792 2716 2471 2178 2026 1767 1583 1532 1584 1661 1451 1464 1404 1326 1151 1108 1105 728 499 88 0 0 0 0 0 0 0 0 0
3156 2958 2725 2463 2153 1884 1846 1894 1938 1978 1966 1953 1944 1938 1954 2073 2206 2317 2395 2434 2435 2430 2447 2468 2533 2636 2735 2836 2904 2955 2988 3026 3061 3093 3119 3061 3174 3308 3472 3570 3590 3584 3564 3454 3304 3223 3365 3298 3347 3418 3440 3136 3076 3040 2982 2872 2746 2686 2818 2731 2420 2124 1825 1653 1593 1505 1576 1598 1535 1424 1183 972 1060 1063 896 501 217 0 0 0 0 0 0 0 0
3448 3298 3102 2877 2608 2287 1970 1834 1881 1944 1965 1976 1986 1994 1993 2000 2064 2181 2238 2273 2303 2347 2386 2438 2477 2521 2624 2743 2855 2946 2994 3028 3067 3110 3069 3180 3336 3486 3643 3702 3689 3649 3637 3515 3442 3319 3342 3332 3218 2899 2928 2791 2596 2606 2478 2541 2497 2472 2448 2463 2439 2468 2122 1804 1764 1864 1638 1296 1566 1471 1235 1104 815 888 963 710 435 0 0 0 0 0 0 0 0
Wind_Speed
16 16 14 15 15 16 17 18 17 17 15 16 16 17 16 16 16 16 14 13 12 13 11 10 9 8 9 8 6 5 6 6 7 7 7 9 10 12 14 14 14 14 15 16 15 16 16 17 16 15 15 16 15 16 15 15 15 15 14 14 14 13 13 13 13 13 12 12 12 12 11 11 11 12 12 13 13 14 14 13 12 11 9 9 9
16 15 15 17 17 17 17 18 18 16 15 18 18 16 17 17 17 17 15 13 11 13 12 11 10 10 9 8 6 5 5 6 7 7 7 8 10 10 14 14 14 15 16 16 15 16 17 17 17 17 17 17 17 17 16 16 16 16 16 15 15 14 14 13 13 13 12 13 13 12 12 11 12 12 13 13 13 14 15 14 14 13 13 12 12
15 16 16 18 17 17 17 16 17 18 16 17 16 17 17 18 18 19 17 11 13 16 14 14 12 12 11 10 8 5 5 6 6 7 7 9 9 10 11 14 15 16 17 17 16 16 17 18 18 17 18 17 16 18 17 17 17 17 16 16 15 15 15 14 13 13 13 13 13 13 12 12 12 12 12 13 13 13 13 14 15 15 15 14 13
16 16 17 17 17 17 15 14 17 16 15 16 17 17 17 17 18 18 18 14 14 13 13 15 14 16 14 13 10 8 6 6 7 8 8 9 10 11 10 10 15 16 17 18 17 17 17 18 18 17 16 17 17 18 17 18 18 18 18 17 17 15 15 14 13 13 13 13 13 13 12 12 12 12 12 12 13 13 13 13 14 14 14 13 12
17 17 17 17 16 15 15 15 15 15 14 15 17 17 17 17 18 16 16 15 13 12 14 14 15 18 17 15 13 10 9 9 10 9 9 10 10 11 11 11 12 16 18 18 17 17 17 17 16 16 15 16 17 17 18 18 20 19 20 19 17 15 15 15 14 14 14 13 13 13 13 13 13 13 13 13 13 13 13 13 13 13 12 12 12
16 17 16 15 14 14 15 15 15 14 13 15 17 17 17 15 17 16 17 15 15 14 14 16 19 19 18 17 16 14 12 13 13 11 10 11 11 11 12 13 13 13 14 18 17 17 18 17 17 15 17 17 17 17 17 16 17 18 20 20 19 17 15 15 16 14 14 14 14 14 14 13 13 13 12 13 13 12 12 12 12 12 12 12 11
16 15 15 14 13 13 14 15 14 13 13 16 17 17 15 16 15 17 15 14 14 14 15 17 17 21 23 19 17 15 15 15 14 12 12 12 12 12 12 13 13 14 14 13 16 17 17 18 18 18 19 19 19 19 19 18 18 17 16 19 20 18 13 17 17 15 14 14 14 14 14 13 12 13 13 13 12 12 12 12 12 11 12 11 11
15 14 14 13 12 13 14 14 14 13 14 15 15 17 16 15 15 15 15 15 13 12 15 16 14 nan nan 19 17 16 16 15 15 13 13 12 12 13 13 14 14 14 15 14 13 14 16 18 20 21 21 22 21 21 21 19 16 14 16 15 16 19 16 17 17 15 14 13 12 13 14 13 11 9 11 13 11 12 11 10 10 10 11 11 11
13 12 12 12 12 13 14 14 13 14 14 15 15 18 16 15 15 15 15 13 12 12 14 16 nan nan nan 18 18 16 16 15 15 14 13 13 13 14 14 15 16 18 16 15 14 14 15 18 20 22 22 24 22 23 22 20 19 14 17 18 17 16 15 15 16 9 10 12 10 10 12 12 11 9 11 10 10 10 9 9 8 8 9 10 9
12 11 12 12 12 13 13 14 13 14 15 15 18 17 17 16 15 16 15 14 12 10 nan 15 nan nan 17 18 18 17 17 15 14 14 13 14 14 15 16 16 17 17 16 16 16 16 16 17 20 22 23 22 24 23 23 22 20 16 20 18 18 18 15 13 9 10 10 10 12 12 10 9 9 10 9 8 8 8 8 8 8 7 8 8 7
10 10 10 11 12 12 13 13 13 15 15 16 17 17 18 16 16 17 15 15 13 11 nan nan nan nan 15 17 17 17 16 15 14 13 14 14 14 15 15 17 17 17 17 17 17 17 18 18 17 16 17 20 23 25 24 23 21 20 19 18 19 18 17 14 13 13 13 12 12 12 11 12 11 10 10 9 8 7 7 7 8 8 8 8 7
11 9 9 10 11 13 13 13 14 14 15 16 17 18 19 18 16 16 16 15 12 nan nan nan nan nan 11 14 15 16 15 16 15 14 14 14 16 14 16 16 18 18 17 17 18 17 18 19 18 18 18 19 21 24 25 25 24 22 21 21 21 19 19 17 16 18 17 17 16 15 14 13 12 12 12 11 10 10 9 9 8 8 7 7 7
11 9 9 9 11 12 12 13 14 15 16 18 18 18 18 17 15 16 15 15 13 nan nan nan nan nan nan nan nan 14 15 15 15 14 15 16 16 16 16 16 18 19 18 17 18 17 18 18 18 18 18 19 19 21 24 24 25 25 25 24 23 23 22 21 20 19 19 19 19 17 16 15 15 14 13 14 13 12 11 10 9 8 8 8 8
10 9 8 10 11 12 13 14 14 15 16 16 16 17 16 16 15 14 16 16 15 nan nan nan nan nan nan nan nan nan 13 13 14 15 15 15 16 16 16 16 18 18 17 17 17 16 17 18 17 18 18 19 19 19 18 20 22 24 25 25 25 24 22 22 22 21 21 21 19 18 17 16 15 15 15 14 14 13 10 10 10 9 8 8 7
10 9 8 9 11 11 13 14 14 14 14 15 15 16 17 17 16 15 15 15 15 14 nan nan nan nan nan nan nan nan nan 12 14 15 15 14 14 15 15 15 16 16 16 16 17 16 16 16 17 17 17 18 19 19 19 20 21 23 23 24 24 23 22 22 22 22 22 21 19 18 17 17 16 15 15 14 14 12 11 12 11 10 10 10 10
10 8 8 9 10 11 11 13 14 14 15 15 15 15 16 15 14 15 14 14 14 nan 15 nan nan nan nan nan nan nan nan nan nan 15 12 12 13 15 13 14 14 13 13 16 16 15 15 15 16 17 16 17 17 18 20 19 21 23 24 24 24 20 21 22 22 22 22 20 19 17 17 17 16 16 14 13 11 12 13 12 12 12 13 13 14
10 9 8 9 9 10 11 12 12 13 13 14 14 16 15 15 13 13 14 14 14 nan 15 nan nan nan nan nan nan nan nan nan nan nan nan 10 12 12 12 11 12 12 13 14 13 13 14 14 14 14 15 16 16 17 18 18 19 18 20 23 24 22 21 21 22 22 20 20 19 19 18 17 16 15 13 12 12 13 13 14 15 16 16 16 17
9 9 9 8 9 10 10 11 11 12 13 14 13 12 12 12 13 13 14 12 12 nan nan 15 nan 14 nan nan nan nan nan nan nan nan nan 10 10 9 9 10 10 11 11 11 12 11 11 12 12 13 13 14 15 15 16 15 15 16 16 16 22 21 20 20 20 20 19 19 19 20 20 19 17 15 14 14 14 15 16 17 18 17 18 18 nan
8 8 9 9 9 10 11 11 11 11 11 11 12 13 12 12 10 10 13 10 8 11 nan nan nan 13 13 12 10 9 nan nan nan nan nan nan nan 8 9 8 8 9 10 10 10 9 9 9 10 11 12 13 14 14 14 14 15 15 17 18 19 19 18 18 17 19 20 20 20 21 21 20 19 18 16 16 16 17 17 18 18 18 19 19 20
8 8 9 10 10 12 12 12 12 12 11 12 13 12 10 9 9 10 9 9 9 11 13 nan nan nan 11 nan 9 7 nan nan nan nan nan nan nan nan nan nan 6 8 8 9 9 10 9 9 10 11 12 12 13 13 14 14 13 13 14 19 20 20 20 19 19 20 21 21 19 19 21 21 20 20 18 18 18 18 19 19 20 20 20 nan 21
7 8 9 11 11 12 13 13 14 14 13 13 12 11 11 11 10 8 9 8 9 8 8 13 nan nan nan nan nan nan nan nan nan nan nan nan nan nan nan nan nan nan 6 6 8 8 10 10 11 12 12 13 14 14 15 16 16 16 17 21 23 23 23 21 20 22 21 21 21 21 21 21 22 21 21 20 20 21 21 22 22 22 nan nan 23
6 7 8 10 11 11 13 15 15 15 14 15 13 12 11 11 11 10 9 8 7 8 10 10 nan nan nan nan nan nan nan nan nan nan nan nan nan nan nan nan nan nan nan nan 8 9 10 10 11 12 13 13 14 15 16 17 17 17 19 25 26 26 26 24 24 24 24 22 21 22 22 22 22 22 22 22 nan 22 23 nan nan nan 24 24 24
4 6 7 9 10 10 12 14 13 14 15 16 16 15 14 12 11 9 9 10 9 8 8 8 nan nan nan nan nan nan nan nan nan nan nan nan nan nan nan nan nan nan nan nan nan 11 12 12 12 13 14 14 14 14 16 18 19 20 24 26 27 28 28 28 27 27 25 23 24 23 24 24 24 24 24 nan nan 24 25 25 26 25 25 25 25
3 4 5 7 8 10 11 11 13 14 16 16 17 17 15 14 12 11 11 9 8 8 8 8 9 nan nan nan nan nan nan nan nan nan nan nan nan nan nan nan nan nan nan nan nan nan nan 15 15 15 15 14 14 15 17 18 19 25 24 27 28 28 29 30 30 28 27 26 25 25 26 26 27 27 27 27 nan 28 28 28 29 28 27 27 25
3 4 5 7 8 9 10 11 12 13 14 14 15 17 17 16 16 14 12 12 12 11 10 11 11 nan nan nan nan nan nan nan nan nan nan nan nan nan nan nan nan nan nan nan nan nan nan nan nan nan 15 15 15 17 18 19 21 24 28 25 30 29 29 30 29 29 28 28 28 28 28 29 28 28 28 29 30 30 31 31 31 31 30 29 28
3 5 5 5 6 7 8 9 9 9 10 12 14 15 16 17 17 17 16 15 12 13 13 11 10 11 nan nan nan nan nan nan nan nan nan nan nan nan nan nan nan nan nan nan nan nan nan nan nan nan nan 15 17 18 19 21 22 26 30 25 26 29 29 29 29 29 29 29 29 30 30 31 32 32 30 30 31 32 32 32 32 33 32 31 30
3 3 0 3 4 4 5 6 7 9 9 10 11 13 14 15 16 17 17 16 16 16 15 13 13 11 9 nan nan nan nan nan nan nan nan nan nan nan nan nan nan nan nan nan nan nan nan nan nan nan nan nan nan nan nan nan 23 26 28 24 22 27 29 29 28 28 28 29 29 30 30 31 31 33 33 33 32 33 33 33 34 33 33 31 30
3 3 1 2 2 3 3 5 6 7 8 8 9 10 12 13 14 15 17 15 17 18 18 16 16 13 12 9 nan nan nan nan nan nan nan nan nan nan nan nan nan nan nan nan nan nan nan nan nan nan nan nan nan nan 19 21 nan 24 26 21 21 21 27 28 28 29 29 29 29 30 31 31 32 32 33 33 34 34 34 34 34 34 33 33 33
4 3 2 2 2 3 3 4 5 6 7 8 8 9 10 11 12 13 15 15 16 18 18 18 18 16 13 12 nan nan nan nan nan nan nan nan nan nan nan nan nan nan nan nan nan nan nan nan nan nan nan nan nan nan nan nan nan 21 20 21 21 21 24 29 29 29 30 30 31 31 31 32 32 33 34 34 34 35 35 36 36 36 36 35 35
4 3 3 3 3 4 4 4 5 6 7 7 8 9 10 9 10 11 12 13 14 15 16 18 19 17 16 14 12 nan nan nan nan nan nan nan nan nan nan nan nan nan nan nan nan nan nan nan nan nan nan nan nan nan nan nan nan 22 20 nan 21 nan nan nan 31 31 31 32 32 32 32 33 33 34 34 35 35 35 36 36 37 38 38 37 36
5 5 4 4 4 4 5 5 5 6 7 7 8 8 9 9 9 10 10 12 12 14 15 16 17 17 17 16 14 13 10 nan nan nan nan nan nan nan nan nan nan nan nan nan nan nan nan nan nan nan nan nan nan nan nan nan nan 24 22 nan nan nan nan nan nan 32 33 34 34 nan nan nan nan nan nan nan nan nan 37 38 39 39 39 38 38
5 5 4 4 4 5 5 5 6 6 7 7 8 8 8 8 9 9 10 11 11 12 12 13 14 16 16 16 16 15 13 10 nan 9 9 9 nan nan nan nan 14 14 14 nan nan nan nan nan nan nan nan nan nan nan nan nan nan 25 24 nan nan 27 26 nan nan nan nan nan nan nan nan nan nan nan nan nan nan nan nan nan 40 41 41 40 39
6 5 4 4 5 5 5 6 6 7 7 8 8 7 8 8 8 9 9 10 11 10 10 12 12 13 14 15 15 14 13 12 12 nan 10 11 nan nan nan 12 13 13 15 15 15 nan nan nan nan nan nan nan nan nan nan nan nan nan 24 24 25 26 nan nan nan nan nan nan nan nan nan nan nan nan nan nan nan nan nan nan nan nan 42 42 41
6 4 4 4 4 6 6 6 7 7 7 8 8 8 7 7 7 8 9 10 10 9 9 10 12 11 11 12 12 12 13 14 12 12 nan nan nan nan nan nan 12 12 14 14 13 12 12 13 13 nan nan nan nan nan nan nan nan nan nan 24 25 27 nan nan nan nan nan nan nan nan nan nan nan nan nan nan nan nan nan nan nan nan nan nan nan
7 5 4 4 5 6 6 7 7 7 7 7 8 9 8 8 7 7 8 9 9 9 9 10 10 10 10 11 11 11 10 11 12 12 11 11 nan nan nan nan nan 12 13 15 13 12 12 11 16 14 nan 18 21 20 21 22 nan nan nan nan 27 27 27 nan nan nan nan nan nan nan nan nan nan nan nan nan nan nan nan nan nan nan nan nan nan
5 5 5 4 5 6 6 6 7 7 7 7 8 8 8 8 7 7 7 7 7 7 8 8 8 10 11 10 10 10 9 10 11 11 11 11 11 nan nan nan nan nan 13 14 16 14 12 11 13 16 16 18 18 20 20 21 23 24 26 26 nan 27 28 29 nan nan nan nan nan nan nan nan nan nan nan nan nan nan nan nan nan nan nan nan nan
4 5 4 5 5 5 6 6 7 7 8 8 8 7 7 7 6 6 6 6 6 6 6 6 7 9 10 10 10 9 8 8 8 10 11 12 12 11 11 nan nan nan nan 15 16 16 14 14 12 17 17 17 17 19 22 22 21 23 24 26 nan 28 28 30 30 31 nan nan nan 38 38 nan nan nan nan nan nan nan nan nan nan nan nan nan nan
4 4 3 4 5 5 5 5 6 7 7 8 8 7 7 6 5 4 4 5 5 5 6 6 7 8 9 9 8 7 6 6 8 9 9 11 10 10 11 11 11 nan nan nan 14 15 15 15 14 13 19 19 17 19 23 25 23 22 23 25 26 28 30 nan 32 32 33 35 36 36 37 37 38 40 41 41 42 nan nan nan nan nan nan nan nan
4 4 3 4 5 5 4 4 5 7 7 7 7 7 6 5 4 3 2 3 3 4 5 7 7 8 8 7 6 5 5 6 7 9 9 8 8 10 11 11 11 12 12 13 nan nan 15 14 13 15 15 19 22 19 23 26 25 26 26 26 25 30 32 32 31 33 35 35 37 39 40 40 41 41 42 43 43 nan nan nan nan nan nan nan nan
5 4 4 4 4 4 3 4 5 6 6 6 6 6 5 5 4 3 2 1 1 2 3 5 6 6 6 6 6 6 7 8 9 10 8 8 7 7 8 10 12 14 14 15 17 18 17 16 16 15 17 16 21 23 24 28 26 24 nan nan 28 29 nan 33 33 34 nan 37 36 36 37 39 38 39 40 40 41 41 nan nan 44 46 nan nan nan
7 6 5 5 4 3 3 4 4 5 5 5 5 5 6 5 4 3 1 0 1 2 2 2 2 2 3 5 7 9 11 14 15 14 12 11 8 9 9 12 13 14 15 16 18 20 19 19 17 18 17 17 19 22 23 27 nan 27 nan nan nan 28 nan nan 31 34 nan nan nan 35 36 39 38 38 38 38 38 40 nan nan 43 46 48 nan nan
8 7 6 4 3 3 3 4 4 4 4 4 6 11 10 5 4 1 1 1 2 2 2 2 3 4 5 5 7 13 14 15 15 16 17 16 17 14 13 16 17 18 19 19 20 22 22 21 20 20 21 20 19 23 23 nan nan nan nan nan nan nan nan nan nan 32 36 37 nan 34 33 35 37 nan 37 36 37 41 nan nan 43 45 nan nan nan
8 7 6 4 3 3 3 3 4 4 3 3 10 10 11 11 5 2 2 2 3 4 4 4 6 6 5 6 7 9 11 11 13 17 17 18 18 20 19 20 22 23 22 23 23 25 25 24 22 23 23 21 19 23 26 25 29 nan nan nan nan nan nan nan nan nan nan nan nan nan 30 34 nan 36 36 36 38 41 nan nan nan nan nan nan nan
9 8 6 4 4 5 5 3 2 3 3 6 9 9 9 9 8 4 2 2 2 3 5 6 7 6 6 6 6 6 7 10 11 12 14 17 19 20 22 23 24 25 27 26 25 26 28 27 24 24 24 24 21 24 26 29 29 32 33 35 38 39 nan nan nan nan 36 nan nan nan nan 35 nan nan 34 36 39 42 nan nan nan nan nan nan nan
11 8 5 5 5 6 5 2 1 1 1 5 8 8 7 8 9 7 3 2 2 4 5 6 6 5 5 4 5 6 7 12 12 12 13 14 19 21 22 23 23 24 24 26 28 27 28 28 26 23 26 26 23 22 29 32 36 35 36 37 39 41 43 42 40 38 39 44 44 41 nan nan nan nan nan 36 40 nan nan nan nan nan 47 47 nan
9 7 7 6 6 6 5 4 3 3 1 3 5 5 5 6 7 6 3 3 4 5 5 5 4 4 4 4 5 7 9 11 13 15 15 16 17 19 23 25 25 23 24 25 25 26 26 28 28 25 24 31 27 24 28 38 40 38 39 38 42 42 45 44 42 41 45 50 48 46 38 38 nan nan nan 35 42 43 45 nan nan nan nan nan nan
9 9 9 8 8 8 7 7 6 4 3 2 2 3 4 5 5 6 0 2 4 5 5 4 3 4 4 6 7 9 10 13 15 18 18 19 20 20 21 24 27 27 26 25 27 29 30 31 30 28 24 27 29 27 29 39 42 42 45 44 44 45 47 48 45 46 46 48 50 52 39 37 46 nan nan nan 43 45 46 nan nan nan nan nan nan
10 11 11 11 9 8 8 8 7 4 4 1 3 4 4 4 6 7 3 1 2 4 4 2 2 3 6 8 9 10 11 13 16 20 20 21 22 21 21 23 26 28 28 30 31 33 33 33 34 33 30 30 32 31 32 37 40 44 47 50 44 49 55 54 47 47 44 48 52 54 48 44 50 48 nan nan nan nan nan nan nan nan nan nan nan
9 10 11 13 12 10 9 9 6 5 6 4 4 5 6 7 10 7 6 5 3 2 2 1 2 4 7 10 11 11 12 14 16 20 22 25 22 22 22 22 25 26 26 34 38 38 36 36 36 36 34 33 32 27 26 34 43 49 62 54 46 56 63 57 50 46 43 50 51 55 56 51 54 55 51 nan nan nan nan nan nan nan nan nan nan
9 10 12 14 14 12 10 8 8 7 8 7 6 6 8 10 10 8 9 7 3 2 2 3 5 6 7 10 12 12 12 14 18 21 23 27 24 22 22 22 21 23 26 34 36 36 39 38 37 35 35 36 37 33 32 35 42 56 68 59 53 65 71 66 53 44 42 49 51 58 55 52 53 59 55 57 60 nan nan nan nan nan nan nan nan
9 12 13 13 14 14 11 10 8 8 10 9 7 7 9 12 11 11 11 9 5 4 5 5 8 9 9 11 13 14 14 15 19 23 26 30 26 25 26 25 23 23 27 36 36 35 40 43 42 40 37 39 40 39 37 37 40 52 62 59 55 62 73 75 66 51 43 43 49 62 56 50 53 55 57 55 51 nan nan nan nan nan nan nan nan
Wind_Direction
90 90 91 88 88 90 91 91 89 86 85 85 82 82 83 81 83 84 80 74 73 75 71 71 66 63 67 69 64 68 69 63 65 64 64 70 72 59 41 42 45 48 48 48 39 40 42 44 42 39 40 39 38 39 38 39 39 40 42 44 48 47 47 50 48 52 52 53 52 52 49 47 45 46 50 54 55 60 62 64 72 84 90 94 99
86 89 84 86 88 92 92 89 85 84 80 78 77 76 78 81 82 82 80 74 73 70 69 67 68 67 64 66 69 71 68 66 68 62 63 66 72 75 45 47 46 52 53 53 48 49 47 48 48 47 46 43 43 46 46 45 46 45 49 52 52 52 54 56 59 59 56 57 55 57 54 50 50 50 54 58 63 68 74 78 82 84 87 88 89
82 81 82 84 89 89 85 84 84 80 75 76 78 74 75 73 74 74 73 68 78 73 68 63 57 63 61 59 59 60 71 73 76 71 65 65 72 85 76 49 51 53 59 58 54 55 52 51 51 49 48 48 46 53 53 52 51 54 56 57 56 54 55 59 64 65 62 59 60 61 57 57 55 57 60 63 69 73 77 78 81 84 84 88 87
78 80 80 83 86 83 82 78 77 79 75 76 80 80 76 76 73 70 70 69 61 68 64 60 56 55 55 56 61 65 77 85 82 76 72 72 74 86 91 82 59 58 61 63 61 60 58 55 55 53 52 53 51 52 52 56 54 55 56 59 60 58 58 60 65 65 64 63 62 64 63 61 61 63 65 70 73 74 76 76 77 79 80 82 83
78 78 80 80 82 81 80 76 75 74 76 77 82 85 83 78 75 67 69 74 74 66 57 56 59 61 53 55 56 71 90 93 89 82 79 80 80 90 98 100 96 70 66 69 68 67 66 63 61 61 58 56 57 55 55 53 54 57 58 60 64 70 67 61 62 64 64 63 64 66 66 64 64 66 70 73 74 77 76 77 79 81 81 80 80
80 80 80 79 78 75 74 74 74 75 76 81 83 84 82 73 70 66 66 67 74 67 58 59 58 63 64 60 60 67 81 88 89 89 94 92 93 99 101 108 102 101 96 78 76 75 72 71 68 64 71 66 64 63 61 62 74 62 62 60 61 60 61 69 66 62 62 63 64 66 68 69 70 67 72 76 77 76 77 77 80 82 83 84 82
81 79 78 77 74 74 74 72 72 74 73 80 83 85 80 73 65 60 67 73 71 70 66 63 60 61 62 64 63 71 81 86 94 97 98 100 103 106 106 102 101 98 98 99 88 81 80 78 73 70 70 73 70 67 64 61 49 64 73 76 64 60 70 71 69 65 68 66 67 71 73 77 77 77 77 86 83 81 80 80 82 84 86 89 91
81 79 77 75 72 71 71 70 68 69 72 80 86 82 76 70 70 61 68 76 76 76 70 70 64 nan nan 59 66 71 77 87 92 97 98 99 99 103 101 99 97 94 88 88 91 95 86 84 81 77 77 77 75 74 73 72 64 69 69 77 88 82 60 66 67 74 85 91 95 96 95 91 93 107 98 86 85 85 82 84 86 86 92 96 96
80 77 73 71 71 71 73 68 67 65 71 80 81 77 70 62 65 67 66 76 77 79 75 70 nan nan nan 57 61 67 74 81 92 95 98 96 97 99 99 97 95 86 89 86 90 91 95 88 87 85 80 78 78 78 77 72 65 57 66 66 72 76 82 84 83 70 75 83 89 92 89 91 92 95 95 99 90 85 85 82 82 87 92 94 94
77 73 72 71 69 70 73 72 68 66 69 75 75 75 70 61 61 74 78 79 82 79 nan 66 nan nan 61 59 60 64 70 76 86 92 92 94 95 93 92 93 93 93 91 91 89 89 88 88 86 85 84 82 80 79 78 79 76 57 62 58 64 67 62 73 82 94 77 72 65 63 74 85 79 62 69 74 81 82 79 73 71 76 80 79 82
79 69 67 71 71 72 73 73 67 65 67 70 74 74 72 68 68 76 81 81 81 73 nan nan nan nan 65 67 66 66 73 77 79 84 86 90 89 89 94 92 94 95 94 91 90 86 84 82 81 81 83 82 77 76 75 75 75 67 60 56 64 65 64 57 59 47 61 59 55 55 54 55 55 52 52 55 60 53 55 58 61 65 69 76 76
78 72 65 65 67 67 68 70 65 61 62 65 70 68 66 70 74 80 84 87 91 nan nan nan nan nan 72 76 76 75 75 75 74 78 83 84 83 85 82 87 86 88 85 84 81 79 77 75 73 71 71 74 70 68 70 70 68 67 62 56 59 58 54 50 51 45 43 45 46 45 45 46 44 40 41 40 35 31 33 39 44 50 54 52 42
79 75 68 70 69 68 65 65 61 59 59 61 62 63 65 68 72 77 75 80 85 nan nan nan nan nan nan nan nan 82 78 77 80 77 75 77 82 79 76 77 81 82 80 77 75 73 71 70 68 63 62 60 63 65 62 63 64 62 61 58 56 54 49 48 45 43 45 43 41 40 36 35 35 33 30 30 30 28 29 28 30 27 27 23 31
77 76 72 66 66 66 61 58 56 58 61 63 62 64 64 69 70 76 78 67 72 nan nan nan nan nan nan nan nan nan 80 78 84 86 80 78 77 78 76 74 74 76 77 73 73 69 66 65 63 59 56 51 51 48 50 48 52 52 52 56 53 52 49 46 43 40 43 44 40 36 30 28 28 28 26 23 22 23 20 17 17 7 7 19 14
78 71 67 67 62 60 59 57 57 57 58 62 61 59 61 62 65 63 69 70 68 71 nan nan nan nan nan nan nan nan nan 83 85 82 78 80 79 76 74 73 72 71 69 69 66 64 62 59 56 53 51 48 45 42 40 39 39 41 41 45 47 47 46 42 38 37 38 39 38 33 29 24 25 24 21 19 18 18 13 7 4 3 10 15 9
77 69 65 60 56 56 56 55 56 57 53 53 57 60 61 63 63 66 61 59 68 nan 71 nan nan nan nan nan nan nan nan nan nan 87 77 72 75 76 73 71 70 69 66 64 62 58 57 51 49 46 43 42 40 36 34 33 38 41 40 39 36 30 37 37 31 31 34 35 31 24 22 20 19 19 20 17 12 7 6 9 2 6 12 12 10
78 66 56 50 52 52 51 53 51 54 54 52 51 53 55 57 55 58 58 52 57 nan 74 nan nan nan nan nan nan nan nan nan nan nan nan 71 73 69 74 73 69 63 58 62 59 54 50 46 43 40 37 34 35 32 30 29 30 29 31 35 31 21 24 27 27 26 26 28 26 21 18 15 16 17 17 16 15 16 16 12 8 11 10 10 8
80 68 57 50 44 46 49 49 50 49 51 50 52 54 56 56 54 54 58 59 50 nan nan 70 nan 64 nan nan nan nan nan nan nan nan nan 82 85 72 69 73 71 65 59 59 56 52 46 45 38 37 32 27 28 26 24 24 23 22 24 27 31 19 19 21 27 26 23 24 21 21 19 17 17 17 18 19 18 16 16 10 10 9 7 6 nan
72 64 57 51 46 46 45 47 47 46 51 50 51 50 50 54 53 53 59 53 50 51 nan nan nan 69 65 79 84 84 nan nan nan nan nan nan nan 75 78 75 68 66 57 53 51 48 48 38 35 33 28 23 21 20 17 18 22 20 23 21 26 19 18 15 18 27 26 25 21 21 21 19 18 15 14 15 15 11 10 9 8 7 5 3 0
63 56 52 52 47 46 46 45 44 44 43 46 47 49 49 55 52 53 57 52 42 40 54 nan nan nan 65 nan 79 86 nan nan nan nan nan nan nan nan nan nan 62 64 53 47 44 41 40 33 31 29 25 19 14 13 14 15 14 14 17 22 19 21 24 21 23 28 33 29 24 16 18 18 19 17 16 15 13 10 8 9 7 5 3 nan 359
64 50 49 51 50 46 46 45 43 42 42 45 48 44 41 41 44 45 48 53 42 45 42 53 nan nan nan nan nan nan nan nan nan nan nan nan nan nan nan nan nan nan 62 50 46 35 27 24 21 22 18 13 7 10 14 14 15 14 18 26 25 26 30 30 30 34 35 32 26 21 20 20 20 20 18 16 14 11 8 7 7 6 nan nan 1
70 56 50 52 51 46 44 43 41 38 37 41 41 43 45 44 43 40 35 40 43 33 39 49 nan nan nan nan nan nan nan nan nan nan nan nan nan nan nan nan nan nan nan nan 33 28 20 17 15 17 15 9 7 13 16 18 18 20 28 33 34 33 35 32 32 33 32 30 27 24 22 23 23 22 20 18 nan 12 9 nan nan nan 7 5 3
75 62 51 50 51 45 41 41 38 37 34 33 35 36 39 41 44 45 38 31 32 32 40 45 nan nan nan nan nan nan nan nan nan nan nan nan nan nan nan nan nan nan nan nan nan 23 17 14 15 17 13 11 12 18 22 24 28 32 36 40 40 37 35 33 32 31 30 28 28 27 26 26 26 24 22 nan nan 13 13 12 12 11 9 7 5
104 81 58 49 47 44 41 35 33 33 32 28 30 31 31 34 38 41 44 41 35 28 29 36 42 nan nan nan nan nan nan nan nan nan nan nan nan nan nan nan nan nan nan nan nan nan nan 22 21 18 18 20 23 26 29 33 39 42 40 42 41 39 36 32 31 30 31 29 26 28 28 28 28 27 25 23 nan 19 18 17 15 14 12 10 7
111 76 59 37 37 37 34 31 32 31 27 23 25 25 26 26 32 36 38 39 37 32 28 34 32 nan nan nan nan nan nan nan nan nan nan nan nan nan nan nan nan nan nan nan nan nan nan nan nan nan 27 31 32 30 34 36 40 43 41 42 41 39 37 35 32 32 32 30 28 29 31 31 29 29 27 26 24 22 20 19 18 17 16 15 14
76 62 46 29 32 31 23 27 27 22 21 19 16 19 20 24 27 30 34 36 33 35 37 36 35 44 nan nan nan nan nan nan nan nan nan nan nan nan nan nan nan nan nan nan nan nan nan nan nan nan nan 36 34 30 31 33 36 40 39 36 39 38 37 36 35 34 33 33 30 29 29 29 28 26 24 22 22 20 19 20 20 20 21 19 17
91 81 3 14 25 13 10 10 8 8 8 9 7 8 12 17 22 27 31 29 29 32 38 33 37 41 38 nan nan nan nan nan nan nan nan nan nan nan nan nan nan nan nan nan nan nan nan nan nan nan nan nan nan nan nan nan 32 34 35 32 33 34 33 33 32 31 30 29 28 26 25 25 24 23 21 20 18 20 19 19 21 21 20 19 16
159 205 243 324 349 357 347 357 344 345 351 355 353 353 358 4 12 17 26 22 24 27 33 31 37 36 36 34 nan nan nan nan nan nan nan nan nan nan nan nan nan nan nan nan nan nan nan nan nan nan nan nan nan nan 24 26 nan 31 31 27 26 28 29 27 26 26 25 24 24 23 23 23 23 22 21 20 19 18 18 18 18 18 17 16 15
207 221 259 275 307 325 334 336 326 330 335 341 340 341 343 350 356 4 15 15 17 25 25 26 32 30 32 30 nan nan nan nan nan nan nan nan nan nan nan nan nan nan nan nan nan nan nan nan nan nan nan nan nan nan nan nan nan 24 22 21 19 19 22 23 22 22 21 21 21 21 22 22 22 22 22 21 20 18 16 17 17 15 14 13 13
226 236 263 293 301 323 328 332 328 322 335 332 333 331 329 338 346 349 357 358 10 18 20 21 26 23 27 31 29 nan nan nan nan nan nan nan nan nan nan nan nan nan nan nan nan nan nan nan nan nan nan nan nan nan nan nan nan 19 17 nan 14 nan nan nan 17 18 19 19 19 18 19 20 20 20 19 18 18 17 15 14 14 12 11 10 9
225 240 262 284 300 314 321 332 323 332 330 333 329 326 323 330 331 336 335 342 356 10 16 15 22 16 21 28 27 34 31 nan nan nan nan nan nan nan nan nan nan nan nan nan nan nan nan nan nan nan nan nan nan nan nan nan nan 10 12 nan nan nan nan nan nan 14 15 15 15 nan nan nan nan nan nan nan nan nan 12 11 11 11 10 8 6
227 250 263 288 306 320 321 328 332 328 330 336 328 329 324 327 324 324 327 331 346 2 10 9 15 12 14 21 23 26 27 24 nan 27 27 25 nan nan nan nan 17 17 11 nan nan nan nan nan nan nan nan nan nan nan nan nan nan 6 5 nan nan 9 3 nan nan nan nan nan nan nan nan nan nan nan nan nan nan nan nan nan 9 9 8 6 4
228 246 266 290 306 323 325 327 334 333 332 332 327 324 326 328 324 323 317 325 343 355 356 6 10 10 10 14 18 19 14 19 28 nan 24 25 nan nan nan 9 14 5 0 5 13 nan nan nan nan nan nan nan nan nan nan nan nan nan 359 360 356 354 nan nan nan nan nan nan nan nan nan nan nan nan nan nan nan nan nan nan nan nan 4 2 2
227 239 269 281 298 316 323 330 333 336 330 330 324 321 329 332 332 316 321 329 342 354 346 3 4 6 3 7 16 14 3 12 21 28 nan nan nan nan nan nan 12 6 354 354 8 360 31 337 346 nan nan nan nan nan nan nan nan nan nan 352 348 348 nan nan nan nan nan nan nan nan nan nan nan nan nan nan nan nan nan nan nan nan nan nan nan
214 230 260 286 300 307 317 323 324 326 330 326 320 321 330 335 337 331 329 333 346 353 356 6 2 350 352 359 12 8 352 2 16 26 25 28 nan nan nan nan nan 2 351 351 348 5 18 14 337 342 nan 338 344 346 345 348 nan nan nan nan 344 340 339 nan nan nan nan nan nan nan nan nan nan nan nan nan nan nan nan nan nan nan nan nan nan
212 222 244 273 283 298 307 311 315 319 326 326 325 326 333 333 336 342 338 341 349 356 360 3 350 339 350 352 7 2 351 359 14 21 26 23 21 nan nan nan nan nan 353 344 350 358 358 8 342 346 340 337 343 340 336 335 339 338 339 336 nan 334 335 334 nan nan nan nan nan nan nan nan nan nan nan nan nan nan nan nan nan nan nan nan nan
216 232 234 247 266 280 294 310 318 325 335 332 330 331 326 326 334 336 340 341 349 356 356 350 334 336 341 351 4 350 344 357 8 18 24 25 23 14 13 nan nan nan nan 348 350 348 0 7 353 335 338 338 336 330 327 333 333 332 328 329 nan 333 334 333 331 335 nan nan nan 348 350 nan nan nan nan nan nan nan nan nan nan nan nan nan nan
231 243 250 248 258 279 292 314 323 332 330 328 334 337 336 330 325 325 328 332 340 342 340 334 334 334 341 351 354 343 348 7 24 25 26 29 21 14 7 4 6 nan nan nan 347 354 358 5 354 349 329 336 334 334 324 325 331 330 324 322 322 329 330 nan 334 335 333 332 331 335 341 344 347 350 349 349 350 nan nan nan nan nan nan nan nan
236 242 252 261 258 272 301 315 331 339 338 332 335 339 337 333 333 329 323 315 317 316 317 326 328 336 347 358 5 359 14 30 43 45 41 33 23 21 5 358 354 352 1 352 nan nan 358 1 356 345 342 332 333 339 322 321 326 327 324 318 327 330 330 334 339 333 330 331 332 337 337 337 339 339 343 345 345 nan nan nan nan nan nan nan nan
227 238 250 263 267 277 316 327 343 335 334 332 338 345 341 341 335 340 326 285 281 283 290 301 314 332 356 20 41 41 43 50 50 56 42 43 26 22 3 345 348 350 353 346 340 345 347 351 354 351 338 341 328 327 314 314 319 320 nan nan 336 333 nan 333 339 336 nan 328 329 329 332 334 335 339 339 338 341 341 nan nan 342 343 nan nan nan
223 229 240 254 271 293 308 320 336 336 339 343 336 346 353 1 353 10 12 133 197 224 250 282 305 6 37 44 49 55 55 56 52 50 41 24 8 7 356 336 345 348 349 342 340 336 339 343 350 338 341 345 338 324 324 325 nan 334 nan nan nan 333 nan nan 333 329 nan nan nan 327 330 331 331 329 326 327 329 334 nan nan 334 340 343 nan nan
226 233 240 254 270 293 298 311 322 330 339 325 6 19 12 2 3 19 179 143 143 154 165 143 103 70 68 67 71 61 55 50 45 40 36 25 15 1 347 329 338 342 345 345 341 337 336 341 345 342 345 351 341 327 329 nan nan nan nan nan nan nan nan nan nan 323 322 321 nan 328 334 328 326 nan 324 327 324 324 nan nan 328 332 nan nan nan
236 240 247 258 266 264 283 303 335 337 334 344 27 19 19 23 17 50 79 111 145 139 126 106 93 89 86 77 75 64 49 38 31 29 23 17 11 8 4 356 343 338 340 342 340 334 333 336 337 336 341 348 339 326 327 323 315 nan nan nan nan nan nan nan nan nan nan nan nan nan 331 323 nan 322 323 323 320 318 nan nan nan nan nan nan nan
240 242 250 260 253 250 252 280 339 342 342 27 31 23 15 18 24 52 98 137 153 137 113 96 103 103 87 69 51 35 22 18 9 3 4 6 3 360 357 354 354 354 349 343 338 331 327 329 331 335 334 333 332 325 321 313 315 314 315 314 315 317 nan nan nan nan 313 nan nan nan nan 313 nan nan 319 317 315 315 nan nan nan nan nan nan nan
243 248 254 257 254 254 256 270 303 321 329 38 34 25 16 16 25 39 100 123 137 117 109 100 96 85 70 48 32 9 359 12 360 348 341 337 342 350 349 347 346 348 350 353 347 335 320 320 324 332 329 321 322 325 316 311 305 311 310 310 309 311 313 313 316 318 309 310 311 314 nan nan nan nan nan 314 311 nan nan nan nan nan 335 336 nan
259 258 255 259 254 253 254 250 234 225 211 61 24 19 16 16 16 5 85 97 118 116 100 90 81 60 38 15 7 359 343 337 332 331 327 326 320 319 320 321 323 331 340 348 343 333 324 322 322 328 327 313 320 316 307 302 308 314 312 311 306 307 309 314 314 309 302 307 310 304 307 310 nan nan nan 313 306 305 307 nan nan nan nan nan nan
271 261 253 248 245 245 243 243 233 217 198 72 326 345 0 2 352 319 240 129 127 117 102 87 60 30 1 348 352 351 338 329 322 323 319 315 313 314 316 316 316 318 321 323 314 314 318 318 322 327 325 314 312 313 307 305 312 316 313 311 308 310 306 299 298 301 301 302 303 301 309 307 299 nan nan nan 300 301 300 nan nan nan nan nan nan
263 255 245 240 241 243 244 244 237 207 195 251 291 300 317 317 305 268 258 175 132 115 101 79 18 340 335 334 330 329 328 325 323 326 320 309 307 313 315 314 311 313 317 316 320 321 320 317 318 322 320 317 314 310 308 309 311 310 306 294 299 304 302 300 302 298 299 298 304 306 305 304 300 304 nan nan nan nan nan nan nan nan nan nan nan
273 268 254 244 236 235 239 242 234 206 201 229 271 285 290 292 267 243 241 225 196 132 89 9 321 325 320 316 313 311 313 314 315 318 318 314 309 314 312 311 310 311 314 305 317 326 326 326 328 328 328 323 311 309 319 328 320 312 297 305 318 310 303 302 300 300 306 305 308 311 309 307 305 305 304 nan nan nan nan nan nan nan nan nan nan
281 276 259 244 238 235 236 238 237 220 212 226 269 272 286 289 281 249 238 236 217 214 219 267 282 289 308 336 325 311 311 309 316 321 322 315 313 317 315 313 318 321 314 302 301 307 321 325 323 322 322 314 310 326 340 336 327 311 309 319 322 310 310 309 307 310 318 318 320 316 312 315 308 303 305 298 297 nan nan nan nan nan nan nan nan
276 269 264 251 241 235 231 229 238 239 226 233 270 283 295 295 281 244 245 236 225 233 252 265 277 286 298 308 328 324 317 318 324 325 327 319 318 320 320 320 325 327 316 304 305 307 302 298 291 286 293 301 317 322 321 328 330 322 319 325 324 318 315 314 316 322 323 324 324 315 317 313 308 303 303 298 306 nan nan nan nan nan nan nan nan